Weather History for FAGG - August, 2013

Change the Weather History Date:

Friday, August 16, 2013

  Actual Average Record
Temperature  
Mean Temperature 58 °F -  
Max Temperature 67 °F 64 °F 78 °F (1999)
Min Temperature 48 °F 46 °F 32 °F (1998)
Degree Days  
Heating Degree Days 8    
Growing Degree Days 8 (Base 50)    
Moisture  
Dew Point 40 °F    
Average Humidity 49    
Maximum Humidity 76    
Minimum Humidity 25    
Precipitation  
Precipitation 0.00 in - - ()
Sea Level Pressure  
Sea Level Pressure 29.85 in    
Wind  
Wind Speed 11 mph ()    
Max Wind Speed 28 mph    
Max Gust Speed 44 mph    
Visibility 7.8 miles    
Events      
Averages and records for this station are not official NWS values.
T = Trace of Precipitation, MM = Missing Value Source: Averaged Metar Reports

Daily Weather History Graph

Daily Weather History Graph

Search for Another Location

Airport or City:

Trip Planner

Search our weather history database for the weather conditions in past years. The results will help you decide how hot, cold, wet, or windy it might be!

Date:

Astronomy

Aug. 16, 2013 Rise Set
Actual Time 7:08 AM SAST 6:01 PM SAST
Civil Twilight 6:42 AM SAST 6:27 PM SAST
Nautical Twilight 6:13 AM SAST 6:56 PM SAST
Astronomical Twilight 5:44 AM SAST 7:25 PM SAST
Moon 1:13 PM SAST (8/16) 2:39 AM SAST (8/16)
Length of Visible Light 11h 44m
Length of Day
10h 53m
Waxing Gibbous, 72% of the Moon is Illuminated
Aug 16
Waxing Gibbous
Aug 21
Full
Aug 28
Last Quarter
Sep 5
New
Sep 12
First Quarter

Hourly Weather History & Observations

Time (SAST) Temp. Dew Point Humidity Pressure Visibility Wind Dir Wind Speed Gust Speed Precip Events Conditions
12:00 AM 51.8 °F 41.0 °F 67% 29.95 in - West 11.5 mph - N/A   Clear
1:00 AM 53.6 °F 41.0 °F 62% 29.95 in - West 12.7 mph - N/A   Clear
2:00 AM 51.8 °F 41.0 °F 67% 29.98 in - West 9.2 mph - N/A   Clear
3:00 AM 50.0 °F 41.0 °F 71% 29.98 in - West 11.5 mph - N/A   Clear
4:00 AM 51.8 °F 41.0 °F 67% 29.95 in - West 11.5 mph - N/A   Clear
5:00 AM 51.8 °F 41.0 °F 67% 29.95 in 6.2 mi West 9.2 mph - N/A   Scattered Clouds
6:00 AM 50.0 °F 41.0 °F 71% 29.98 in 6.2 mi West 8.1 mph - N/A   Mostly Cloudy
7:00 AM 50.0 °F 41.0 °F 71% 30.01 in 6.2 mi WNW 5.8 mph - N/A   Scattered Clouds
8:00 AM 50 °F 42 °F 66% 30.01 in 12 mi WNW 3.5 mph - -   Scattered Clouds
8:00 AM 50.0 °F 42.8 °F 76% 30.01 in 6.2 mi WNW 3.5 mph - N/A   Partly Cloudy
9:00 AM 57.2 °F 44.6 °F 63% 29.98 in 6.2 mi NW 5.8 mph - N/A   Partly Cloudy
10:00 AM 62.6 °F 42.8 °F 48% 29.95 in 6.2 mi NW 15.0 mph - N/A   Partly Cloudy
11:00 AM 64 °F 42 °F 32% 29.97 in 12 mi NW 15.0 mph - -   Scattered Clouds
11:00 AM 64.4 °F 41.0 °F 42% 29.95 in 6.2 mi NNW 15.0 mph - N/A   Partly Cloudy
12:00 PM 64.4 °F 41.0 °F 42% 29.92 in 6.2 mi NNW 18.4 mph - N/A   Partly Cloudy
1:00 PM 66.2 °F 42.8 °F 43% 29.86 in 6.2 mi NNW 15.0 mph - N/A   Partly Cloudy
2:00 PM 67 °F 41 °F 27% 29.83 in 12 mi NW 21.9 mph - -   Scattered Clouds
2:00 PM 68.0 °F 41.0 °F 37% 29.83 in 6.2 mi NW 21.9 mph - N/A   Partly Cloudy
3:00 PM 68.0 °F 41.0 °F 37% 29.80 in 6.2 mi NW 17.3 mph - N/A   Partly Cloudy
4:00 PM 68.0 °F 41.0 °F 37% 29.74 in - NW 19.6 mph - N/A   Clear
5:00 PM 66 °F 38 °F 25% 29.72 in 12 mi NW 20.7 mph - -   Clear
5:00 PM 66.2 °F 37.4 °F 35% 29.71 in - NW 27.6 mph 43.7 mph N/A   Clear
6:00 PM 64.4 °F 37.4 °F 37% 29.68 in - WNW 12.7 mph - N/A   Clear
7:00 PM 62.6 °F 37.4 °F 39% 29.68 in 6.2 mi WNW 9.2 mph - N/A   Partly Cloudy
8:00 PM 60 °F 38 °F 32% 29.68 in 12 mi WNW 8.1 mph - -   Scattered Clouds
8:00 PM 60.8 °F 37.4 °F 42% 29.68 in 6.2 mi WNW 9.2 mph - N/A   Partly Cloudy
9:00 PM 59.0 °F 39.2 °F 48% 29.65 in - WNW 6.9 mph 28.8 mph N/A   Clear
10:00 PM 62.6 °F 39.2 °F 42% 29.68 in - WNW 18.4 mph - N/A   Clear
11:00 PM 62.6 °F 39.2 °F 42% 29.68 in - NW 26.5 mph - N/A   Clear